Location: Daerah Kuala Lumpur
(3.1167°N, 101.6833°E)
Time: 19:18:55
(UTC+00:00)

CZ-4C R/B - Pass Details

Date: 15 November 2024
Orbit: 514 x 1473 km, 63.4° (Epoch: 13 December)

Event Time Altitude Azimuth Distance (km) Brightness Sun altitude
Rises 14:13:00 0° 311° (NW) 4,470 6.2 -46.8°
Reaches altitude 10° 14:16:32 10° 299° (WNW) 3,560 5.7 -47.6°
Maximum altitude 14:23:29 25° 248° (WSW) 2,603 5.0 -49.1°
Drops below altitude 10° 14:30:25 10° 197° (SSW) 3,520 5.7 -50.7°
Sets 14:33:56 0° 184° (S) 4,408 6.2 -51.5°
